{"data":{"norad_id":56745,"intl_designator":"2023-072C","name":"SNIPE 2","alt_names":[],"object_type":"PAYLOAD","status":"ACTIVE","operator":null,"country":"SKOR","launch_date":"2023-05-25","launch_site_code":"NSC","launch_vehicle":null,"mission":null,"orbit_class":"UNKNOWN","rcs_meters":null,"size_class":null,"mass_kg":null,"dimensions":null,"purposes":[],"wikipedia_slug":null,"has_3d_model":false,"image_url":null,"decayed_at":null,"tle_current":{"epoch":"2026-09-21T22:45:39.283776Z","epoch_age_seconds":71617,"freshness":"FRESH","line1":"1 56745U 23072C   26264.94837134  .00023417  00000+0  39521-3 0  9999","line2":"2 56745  97.5113 118.0335 0004739  31.1438 329.0094 15.51639682185220","mean_motion":15.51639682,"eccentricity":0.0004739,"inclination_deg":97.5113,"raan_deg":118.0335,"arg_perigee_deg":31.1438,"mean_anomaly_deg":329.0094,"bstar":0.00039521,"rev_number":18522,"period_min":92.805051114953,"perigee_km":408.72046665395,"apogee_km":415.15610000749,"semimajor_km":6790.0752833307,"source":"CELESTRAK","updated_at":"2026-09-22T09:00:25.905156Z"}}}